Mumbai, India

9:31 AM IST on February 26, 2018 (GMT +0530)
Chhatrapati Shivaji International

Weather History for VABB - March, 2014

Change the Weather History Date:

Saturday, March 8, 2014

  Actual Average Record
Temperature  
Mean Temperature 79 °F -  
Max Temperature 87 °F 89 °F 105 °F (2004)
Min Temperature 71 °F 72 °F 60 °F (2007)
Cooling Degree Days 14    
Growing Degree Days 29 (Base 50)    
Moisture  
Dew Point 70 °F    
Average Humidity 73    
Maximum Humidity 89    
Minimum Humidity 49    
Precipitation  
Precipitation 0.00 in - - ()
Sea Level Pressure  
Sea Level Pressure 29.91 in    
Wind  
Wind Speed 3 mph ()    
Max Wind Speed 14 mph    
Max Gust Speed 21 mph    
Visibility 1.5 miles    
Events      
Averages and records for this station are not official NWS values.
T = Trace of Precipitation, MM = Missing Value Source: Averaged Metar Reports

Daily Weather History Graph

Daily Weather History Graph

Search for Another Location

Airport or City:

Trip Planner

Search our weather history database for the weather conditions in past years. The results will help you decide how hot, cold, wet, or windy it might be!

Date:

Astronomy

Mar. 08, 2014 Rise Set
Actual Time 6:52 AM IST 6:46 PM IST
Civil Twilight 6:30 AM IST 7:08 PM IST
Nautical Twilight 6:05 AM IST 7:33 PM IST
Astronomical Twilight 5:40 AM IST 7:59 PM IST
Moon 12:01 PM IST (3/8) 12:32 AM IST (3/8)
Length of Visible Light 12h 37m
Length of Day
11h 53m
Waxing Crescent, 47% of the Moon is Illuminated
Mar 8
Waxing Crescent
Mar 8
First Quarter
Mar 16
Full
Mar 24
Last Quarter
Mar 31
New

Hourly Weather History & Observations

Time (IST) Temp. Heat Index Dew Point Humidity Pressure Visibility Wind Dir Wind Speed Gust Speed Precip Events Conditions
12:10 AM 78.8 °F - 69.8 °F 74% 29.92 in 2.5 mi North 3.5 mph - N/A   Haze
12:40 AM 78.8 °F - 69.8 °F 74% 29.92 in 2.5 mi NNW 3.5 mph - N/A   Haze
1:10 AM 77.0 °F - 69.8 °F 78% 29.92 in 2.5 mi Calm Calm - N/A   Haze
1:40 AM 77.0 °F - 69.8 °F 78% 29.89 in 2.5 mi Calm Calm - N/A   Haze
2:10 AM 77.0 °F - 69.8 °F 78% 29.89 in 2.5 mi Calm Calm - N/A   Haze
2:30 AM 74 °F - 70 °F 82% 29.89 in 1 mi Calm Calm - -   Haze
2:40 AM 77.0 °F - 69.8 °F 78% 29.89 in - Calm Calm - N/A   Mist
3:10 AM 77.0 °F - 69.8 °F 78% 29.89 in 1.9 mi South 3.5 mph - N/A   Haze
3:40 AM 77.0 °F - 69.8 °F 78% 29.89 in 1.7 mi Calm Calm - N/A   Haze
4:10 AM 77.0 °F - 69.8 °F 78% 29.89 in 1.6 mi NE 3.5 mph - N/A   Haze
4:40 AM 77.0 °F - 69.8 °F 78% 29.89 in 1.3 mi Calm Calm - N/A   Haze
5:10 AM 77.0 °F - 71.6 °F 83% 29.89 in 1.2 mi Calm Calm - N/A   Partly Cloudy
5:30 AM 73 °F - 69 °F 84% 29.88 in 1 mi Calm Calm - -   Haze
5:40 AM 75.2 °F - 71.6 °F 89% 29.89 in 1.1 mi Calm Calm - N/A   Partly Cloudy
6:10 AM 75.2 °F - 71.6 °F 89% 29.89 in 1.1 mi ENE 3.5 mph - N/A   Partly Cloudy
6:40 AM 75.2 °F - 71.6 °F 89% 29.92 in 1.0 mi Calm Calm - N/A   Partly Cloudy
7:10 AM 75.2 °F - 71.6 °F 89% 29.92 in 0.9 mi Calm Calm - N/A   Unknown
7:40 AM 77.0 °F - 71.6 °F 83% 29.92 in 0.9 mi Calm Calm - N/A   Haze
8:10 AM 77.0 °F - 71.6 °F 83% 29.92 in 0.9 mi SE 4.6 mph - N/A   Haze
8:30 AM 74 °F - 71 °F 88% 29.94 in 1 mi Calm Calm - -   Haze
8:40 AM 78.8 °F - 71.6 °F 78% 29.95 in 0.9 mi SW 3.5 mph - N/A   Haze
9:40 AM 80.6 °F 83.9 °F 69.8 °F 70% 29.98 in 1.2 mi Calm Calm - N/A   Haze
10:10 AM 80.6 °F 84.6 °F 71.6 °F 74% 29.98 in 1.4 mi WNW 5.8 mph - N/A   Haze
10:40 AM 82.4 °F 87.2 °F 71.6 °F 70% 29.98 in 1.4 mi WSW 4.6 mph - N/A   Haze
11:10 AM 82.4 °F 87.2 °F 71.6 °F 70% 29.98 in 1.4 mi West 3.5 mph - N/A   Haze
11:30 AM 83 °F - 72 °F 62% 29.96 in 1 mi West 6.9 mph - -   Smoke
11:40 AM 84.2 °F 89.6 °F 71.6 °F 66% 29.95 in 1.4 mi SSW 3.5 mph - N/A   Haze
12:10 PM 84.2 °F 89.6 °F 71.6 °F 66% 29.95 in 1.6 mi West 9.2 mph - N/A   Haze
12:40 PM 84.2 °F 89.6 °F 71.6 °F 66% 29.92 in 1.7 mi West 10.4 mph - N/A   Haze
1:10 PM 84.2 °F 89.6 °F 71.6 °F 66% 29.92 in 1.7 mi West 9.2 mph - N/A   Haze
2:10 PM 84.2 °F 88.4 °F 69.8 °F 62% 29.89 in 1.9 mi West 11.5 mph - N/A   Haze
2:30 PM 86 °F - 70 °F 49% 29.88 in 1 mi West 5.8 mph - -   Smoke
2:40 PM 86.0 °F 90.4 °F 69.8 °F 58% 29.86 in - West 10.4 mph - N/A   Haze
3:10 PM 84.2 °F 88.4 °F 69.8 °F 62% 29.86 in - West 13.8 mph - N/A   Haze
3:40 PM 84.2 °F 89.6 °F 71.6 °F 66% 29.83 in - WNW 12.7 mph - N/A   Haze
4:10 PM 84.2 °F 89.6 °F 71.6 °F 66% 29.83 in 2.2 mi West 9.2 mph - N/A   Haze
4:40 PM 84.2 °F 89.6 °F 71.6 °F 66% 29.83 in 2.2 mi West 9.2 mph 20.7 mph N/A   Haze
5:10 PM 82.4 °F 86.3 °F 69.8 °F 66% 29.83 in 2.2 mi West 9.2 mph 20.7 mph N/A   Haze
5:30 PM 84 °F - 71 °F 56% 29.84 in 1 mi West 6.9 mph - -   Smoke
5:40 PM 82.4 °F 86.3 °F 69.8 °F 66% 29.83 in 2.2 mi West 9.2 mph - N/A   Haze
6:10 PM 80.6 °F 83.9 °F 69.8 °F 70% 29.86 in - WSW 11.5 mph - N/A   Haze
6:40 PM 80.6 °F 83.9 °F 69.8 °F 70% 29.86 in - West 11.5 mph - N/A   Haze
7:40 PM 80.6 °F 83.9 °F 69.8 °F 70% 29.89 in 1.9 mi WNW 6.9 mph - N/A   Haze
8:10 PM 80.6 °F 83.9 °F 69.8 °F 70% 29.92 in 1.9 mi NNW 5.8 mph - N/A   Haze
8:30 PM 79 °F - 70 °F 67% 29.92 in 1 mi Calm Calm - -   Smoke
8:40 PM 80.6 °F 83.9 °F 69.8 °F 70% 29.92 in 1.9 mi North 5.8 mph - N/A   Haze
9:10 PM 78.8 °F - 69.8 °F 74% 29.95 in 1.7 mi North 3.5 mph - N/A   Haze
9:40 PM 78.8 °F - 68.0 °F 69% 29.95 in 1.3 mi North 3.5 mph - N/A   Haze
10:10 PM 78.8 °F - 68.0 °F 69% 29.95 in 1.4 mi Calm Calm - N/A   Haze
10:40 PM 78.8 °F - 69.8 °F 74% 29.95 in 1.5 mi Calm Calm - N/A   Haze
11:10 PM 78.8 °F - 68.0 °F 69% 29.95 in 1.6 mi SE 3.5 mph - N/A   Haze
11:30 PM 75 °F - 70 °F 79% 29.97 in 1 mi Calm Calm - -   Haze
11:40 PM 78.8 °F - 68.0 °F 69% 29.95 in 1.6 mi ESE 5.8 mph - N/A   Haze